Regional Weather Roundup
Issued by NWS

Home | Current Version | Previous Version | Graphics & Text | Print | Product List | Glossary On
Versions: 1 2 3 4 5 6 7 8 9 10 11 12 13 14 15 16 17 18 19 20 21 22 23 24 25 26 27 28 29 30 31 32 33 34 35 36 37 38 39 40 41 42 43 44 45 46 47 48 49 50
000
ASUS45 KTFX 020304
RWRMT
MONTANA HOURLY WEATHER ROUNDUP
NATIONAL WEATHER SERVICE GREAT FALLS MT
904 PM MDT WED APR 1 2015

NOTE: "FAIR" INDICATES FEW OR NO CLOUDS BELOW 12000 FEET WITH NO
SIGNIFICANT WEATHER AND/OR OBSTRUCTIONS TO VISIBILITY.

* THESE STATIONS ARE NOT UNDER NWS QUALITY CONTROL. THEY DO NOT
   REPORT WEATHER SUCH AS PRECIPITATION OR FOG.

MTZ001>007-043-020400-
WEST OF THE DIVIDE
CITY           SKY/WX    TMP DP  RH WIND       PRES   REMARKS
KALISPELL      MOCLDY    36  25  64 CALM      30.02R
MISSOULA       CLOUDY    34  28  79 N8        30.10R WCI  27
BUTTE          PTCLDY    30  16  56 NW7       29.99R WCI  23
MULLAN PASS    FOG       23  21  92 VRB5      29.99S VSB 3    WCI  16
* ESSEX        N/A       31  29  92 N1G6       N/A
* LINCOLN      N/A       34  21  59 SW7G20     N/A   WCI  28
* LOOKOUT PASS N/A       29  26  89 NE6        N/A   WCI  23
* POLSON       N/A       35  23  62 E2G9       N/A
* RONAN APT    MOCLDY    39  27  62 N/A        N/A
* SEELEY LAKE  N/A       34  24  67 W6G13      N/A   WCI  29
* THOMP F APT  PTCLDY    30   9  41 N5G14      N/A   WCI  25
$$

MTZ008-052>055-020400-
SOUTHWEST MONTANA
CITY           SKY/WX    TMP DP  RH WIND       PRES   REMARKS
BOZEMAN        MOCLDY    36  18  48 W9        29.99R WCI  29
DILLON         CLOUDY    32  18  56 SE6       29.99R WCI  26
* W YELLOWSTON MOCLDY    27  22  81 N/A        N/A
* THREE FORKS  PTCLDY    37  12  36 N/A        N/A
* TWIN BRIDGES PTCLDY    36   9  32 N/A        N/A
* BOULDER HILL N/A       29  12  49 S2         N/A
* HOMESTAKE PS N/A       26  15  63 W8         N/A   WCI  18
* MONIDA PASS  N/A       25  11  55 W11        N/A   WCI  14
* RAYNOLDS PAS N/A       24  21  88 NW4        N/A
* WHITEHALL    N/A       35  13  40 W6G13      N/A   WCI  30
* WISE RIVER   N/A       29  14  53 W10G21     N/A   WCI  20
$$

MTZ009>010-012-014-046-048-049-054-020400-
EAST SLOPES AND CENTRAL MONTANA
CITY           SKY/WX    TMP DP  RH WIND       PRES   REMARKS
CUT BANK       MOCLDY    36  21  54 N25       29.91R WCI  24
GREAT FALLS    PTCLDY    39  10  30 W18       29.89R WCI  30
HELENA         PTCLDY    37  19  48 W14       29.98R WCI  28
MALMSTROM AFB  PTCLDY    43  10  26 W23G29    29.90R
* DEARBORN     N/A       42  16  35 E14G24     N/A
* EAST GLACIER N/A       28  24  85 SW9        N/A   WCI  19
* MONARCH      N/A       34   6  31 W16G22     N/A   WCI  24
* PENDROY      N/A       34  11  38 NW9G17     N/A   WCI  27
* ROGERS PASS  N/A       30  17  58 SE11G27    N/A   WCI  21
* SAINT MARY   N/A       34  17  50 SW5G18     N/A   WCI  29
* SWEET GRASS  N/A       37  23  57 N12G17     N/A   WCI  29
$$

MTZ011-013-016-021-035-040-045-047-050-051-020400-
NORTH CENTRAL MONTANA
CITY           SKY/WX    TMP DP  RH WIND       PRES   REMARKS
HAVRE          MOCLDY    39  27  62 NW25G39   29.83R WCI  28
LEWISTOWN      PTCLDY    39  10  30 W14       29.85R WCI  31
* N BAR RANCH  MOCLDY    39   5  24 W12       29.85R WCI  32
* MALTA APT    PTCLDY    45  19  35 SW16G23    N/A
* CHESTER      N/A       37  28  70 N17G29     N/A   WCI  27
* DENTON       N/A       37   8  30 W11        N/A   WCI  29
* GEYSER       N/A       37   6  27 W19G28     N/A   WCI  27
* JUDITH GAP   N/A       36   8  31 SW16       N/A   WCI  26
* LOMA         N/A       44  15  31 SW24G34    N/A
$$

MTZ017>020-022>027-061-062-020400-
NORTHEAST MONTANA
CITY           SKY/WX    TMP DP  RH WIND       PRES   REMARKS
GLASGOW        CLEAR     45  18  34 W24G33    29.69S
GLENDIVE       CLEAR     32  25  75 W9        29.77R WCI  24
JORDAN         PTCLDY    39  19  45 W8        29.77R WCI  33
SIDNEY         CLEAR     41  25  53 SW12      29.71F
WOLF POINT     CLEAR     45  27  49 SW13      29.70R
* BEAVER HILL  N/A       39  23  53 W4         N/A
* CIRCLE       N/A       39  28  65 SW5        N/A   WCI  35
* LINDSAY DVD  N/A       35  25  67 SW10       N/A   WCI  27
* NAVAJO       N/A       37  26  64 SW13       N/A   WCI  29
* SACO         N/A       45  21  38 W21G34     N/A
$$

MTZ028>042-056>058-020400-
SOUTHCENTRAL AND SOUTHEAST MONTANA
CITY           SKY/WX    TMP DP  RH WIND       PRES   REMARKS
BAKER          CLEAR     39  18  43 W9        29.80R WCI  33
BILLINGS       MOCLDY    43  14  31 W24G30    29.89R
LIVINGSTON     MOCLDY    37  19  48 W21       29.96R WCI  26
MILES CITY     PTCLDY    46  12  25 W13       29.81R
* LAUREL APT   PTCLDY    43  12  28 W21G26     N/A
* ROUNDUP APT  PTCLDY    43   3  19 W5         N/A
* ALZADA       N/A       39   7  26 SW5        N/A   WCI  35
* HYSHAM       N/A       43   9  25 W4G12      N/A
* LAME DEER    N/A       41   9  27 W12G20     N/A
* REED POINT   N/A       38  20  48 SW9        N/A   WCI  32
* ROSCOE HILL  N/A       30  11  45 W5G13      N/A   WCI  25
$$

REGIONAL REPORTS...DAKOTAS
CITY           SKY/WX    TMP DP  RH WIND       PRES   REMARKS
WILLISTON      PTCLDY    45  23  42 W18       29.68R
DICKINSON      CLEAR     34  19  54 W5        29.74R WCI  29
CROSBY         CLEAR     39  27  62 W14       29.63S WCI  31
WATFORD CITY   CLEAR     39  23  53 W8        29.69R WCI  33
BISMARCK       PTCLDY    46  23  40 W9        29.74R
GRAND FORKS    CLOUDY    48  37  66 W13       29.57R
FARGO          MOCLDY    54  36  51 NW17      29.58S
BUFFALO SD     PTCLDY    37  12  36 NW9       29.76R WCI  30
RAPID CITY     PTCLDY    34  12  40 NW8       29.85R WCI  27
$$

REGIONAL REPORTS...WYOMING/IDAHO/WASHINGTON
CITY           SKY/WX    TMP DP  RH WIND       PRES   REMARKS
GILLETTE       CLEAR     30  12  47 W8        29.89R WCI  22
SHERIDAN       CLOUDY    43  12  28 NW13      29.90R
CODY           PTCLDY    34  19  54 W3        29.95R
YELLOWSTONE LA MOCLDY    21  18  88 VRB6      29.96R WCI  13
SALMON         MOCLDY    36  25  64 NE7       30.06R WCI  30
MULLAN PASS    FOG       23  21  92 VRB5      29.99S VSB 3    WCI  16
SAND POINT     MOCLDY    36  34  92 E6        30.09S WCI  31
SPOKANE        MOCLDY    39  34  82 S7        30.10R WCI  34
$$

REGIONAL REPORTS...ALBERTA
CITY           SKY/WX    TMP DP  RH WIND       PRES   REMARKS
MEDICINE HAT   LGT SNOW  32  32 100 NW22G31   29.81R VSB 3/4  WCI  19
$$

REGIONAL REPORTS...SASKATCHEWAN
CITY           SKY/WX    TMP DP  RH WIND       PRES   REMARKS
SWIFT CURRENT  LGT SNOW  34  30  85 W24G35    29.54S VSB 1 3/4 WCI  22

$$



USA.gov is the U.S. government's official web portal to all federal, state and local government web resources and services.